[[{"header":{"parameterUnit":"m.s-1","parameterCategory":1,"la1":30.2991,"la2":30.254,"lo1":-89.0895,"lo2":-89.0444,"dy":0.0017,"dx":0.0017,"nx":28,"ny":28,"refTime":"2024-09-29T21:00:00:Z","depth":0,"parameterNumber":2,"parameterNumberName":"U-component_of_WINDS"},"data":[0,0,0,0,0,0,0,0,0,0,0,0,0,0,0,0,0,0,0,0,0,0,0,0,0,0,0,0,0,0,0,0,0,0,0,0,0,0,0,0,0,0,0,0,0,0,0,0,0,0,0,0,0,0,0,0,0,0,2.6184,2.6186,0,2.6327,2.6329,2.633,2.6341,2.634,2.6338,2.6337,2.6483,2.6488,2.6494,0,0,0,0,0,0,0,0,0,0,0,0,0,2.592,2.5924,2.6184,2.6186,2.6187,2.6327,2.6329,2.6331,2.6341,2.634,2.6338,2.6336,2.6481,2.6488,2.6494,0,0,0,0,0,0,0,0,0,0,0,0,0,2.6046,2.5926,2.6184,2.621,2.6213,2.6327,2.6329,2.6331,2.6342,2.6339,2.6337,2.6335,2.6479,2.6487,2.6495,2.6592,0,0,2.652,2.6523,0,0,0,0,0,0,0,0,2.6039,2.6055,2.6204,2.6208,2.6212,2.6314,2.629,2.6419,2.6342,2.6293,2.6336,2.6334,2.6429,2.6441,2.6473,2.6599,2.6605,2.652,2.6525,2.6529,2.6531,0,0,0,0,0,0,0,2.603,2.6049,2.6241,2.6206,2.6211,2.6214,2.6229,2.6314,2.6372,2.6297,2.6298,2.6315,2.6431,2.6465,2.6476,2.6607,2.652,2.6527,2.6532,2.6535,2.682,2.6823,0,0,0,0,0,0,2.6016,2.6042,2.6236,2.6245,2.6118,2.6221,2.6238,2.6284,2.6372,2.6383,2.6317,2.6315,2.6452,2.6467,2.6482,2.66,2.6529,2.6536,2.6541,2.6817,2.6821,2.6824,0,0,0,0,0,0,2.601,2.6033,2.623,2.6144,2.6169,2.6228,2.6279,2.6288,2.6322,2.6387,2.6397,2.6341,2.6451,2.647,2.6564,2.6605,2.654,2.6547,2.6814,2.6818,2.6822,2.6838,0,0,0,0,0,0,2.6003,2.6031,2.6068,2.6145,2.6174,2.6311,2.6282,2.6292,2.6336,2.6335,2.6412,2.6423,2.6451,2.6552,2.6572,2.6615,2.6553,2.6811,2.6816,2.6821,2.6834,2.6842,2.6849,0,0,0,0,0,2.5993,2.6067,2.607,2.6094,2.6222,2.6313,2.633,2.636,2.6339,2.6377,2.6419,2.642,2.6598,2.6562,2.6585,2.663,2.6808,2.6815,2.682,2.6831,2.6841,2.6849,0,0,0,0,0,0,2.5994,2.6078,2.6082,2.6183,2.6241,2.6314,2.6363,2.637,2.6435,2.6431,2.6467,2.6484,2.6577,2.6614,2.6572,2.6729,2.6701,2.6712,2.6701,2.6711,2.6718,2.6707,2.656,0,0,0,0,0,2.6006,2.6073,2.6143,2.6225,2.6254,2.6304,2.6345,2.6364,2.6425,2.6449,2.6498,2.6557,2.6626,2.6671,2.6739,2.6841,2.6857,2.6883,2.6891,2.6897,2.6905,2.6961,2.6973,2.6844,2.6844,2.6844,0,0,2.6031,2.6085,2.6126,2.6227,2.6274,2.6342,2.6324,2.6398,2.6449,2.6461,2.6552,2.659,2.6659,2.6757,2.6803,2.679,2.6945,2.6905,2.6909,2.6914,2.6969,2.6981,2.6992,2.6848,2.6847,2.6847,0,0,2.6112,2.616,2.6234,2.6281,2.6353,2.6386,2.6403,2.6477,2.6502,2.6595,2.6605,2.6667,2.6786,2.6834,2.6874,2.6975,2.6978,2.6996,2.7034,2.7088,2.7098,2.7108,2.7142,2.7154,2.7004,2.7004,2.7004,0,2.6134,2.6238,2.627,2.6344,2.6388,2.6402,2.6477,2.6522,2.6612,2.6642,2.6627,2.6776,2.6824,2.6933,2.6958,2.699,2.7011,2.6986,2.7094,2.7104,2.7113,2.7146,2.7159,2.7006,2.7006,2.7006,2.7005,0,2.6261,2.6333,2.6384,2.647,2.652,2.6594,2.6637,2.6684,2.67,2.6734,2.6828,2.6886,2.6965,2.6993,2.7008,2.7105,2.7095,2.7087,2.7059,2.7126,2.7158,2.7171,2.7008,2.7008,2.7007,2.7007,0,0,2.6343,2.6448,2.6466,2.6505,2.6586,2.6642,2.6717,2.6795,2.6833,2.6896,2.6958,2.7059,2.7053,2.7098,2.712,2.7168,2.7242,2.7154,2.7156,2.7167,2.7351,2.7354,2.7368,2.7246,2.7249,2.7251,2.7344,0,2.6432,2.6564,2.6596,2.671,2.6776,2.6792,2.6857,2.6913,2.6948,2.701,2.7048,2.7118,2.7105,2.7132,2.7181,2.7223,2.7279,2.7217,2.7304,2.7306,2.7283,2.7385,2.7389,2.7475,2.7357,2.7359,2.7361,0,2.6552,2.6616,2.6736,2.6808,2.6837,2.6895,2.6969,2.7028,2.7092,2.7114,2.7166,2.7183,2.7261,2.7231,2.7339,2.7295,2.7334,2.736,2.7364,2.7371,2.7336,2.7393,2.7503,2.7515,2.7381,2.7379,2.7378,0,2.6598,2.6715,2.6802,2.6835,2.6922,2.6962,2.7,2.7063,2.7107,2.7172,2.7201,2.7275,2.7314,2.7371,2.7407,2.7382,2.7511,2.7485,2.7531,2.753,2.7555,2.7553,2.767,2.7583,2.7583,2.7583,2.7583,0,2.6691,2.6763,2.6824,2.6877,2.6958,2.6995,2.7075,2.7113,2.7169,2.723,2.7249,2.7306,2.7351,2.7414,2.7443,2.7527,2.7546,2.7565,2.7571,2.7562,2.7559,2.7585,2.758,2.7586,2.7586,2.7585,2.7584,0,2.6755,2.6799,2.6894,2.6969,2.699,2.7046,2.711,2.7162,2.7198,2.7275,2.7295,2.7351,2.7426,2.7469,2.7563,2.7583,2.7676,2.7681,2.7654,2.7656,2.7699,2.7694,2.7836,2.7856,2.7758,2.7759,2.7759,0,2.6811,2.6867,2.6948,2.699,2.7029,2.7097,2.7142,2.7182,2.7229,2.7307,2.735,2.7426,2.7489,2.7608,2.7657,2.773,2.7735,2.778,2.7746,2.7735,2.7734,2.7729,2.7734,2.7785,2.7786,2.7787,2.7787,0,2.6905,2.6924,2.6989,2.7062,2.7116,2.7175,2.7234,2.7268,2.7317,2.7369,2.7446,2.7495,2.7592,2.7667,2.7743,2.7783,2.7793,2.7798,2.7812,2.7802,2.7783,2.7792,2.7668,2.7794,2.7793,2.7793,2.7792,2.7792,2.6965,2.7015,2.708,2.7152,2.7201,2.7256,2.7308,2.7351,2.7416,2.7498,2.7517,2.7598,2.7662,2.7766,2.7808,2.7872,2.7863,2.7884,2.7889,2.7893,2.7894,2.7775,2.7886,2.7886,2.7886,2.7886,2.7886,0,2.7058,2.7101,2.7167,2.7249,2.7306,2.7312,2.7378,2.7424,2.7495,2.7554,2.7616,2.7705,2.7778,2.7833,2.7909,2.7949,2.7955,2.7967,2.7963,2.7972,2.7898,2.7877,2.796,2.796,2.796,2.796,2.796,2.796,2.7113,2.7198,2.7225,2.7334,2.7377,2.7456,2.7493,2.7544,2.7591,2.7689,2.775,2.7786,2.7844,2.7923,2.7991,2.8005,2.8031,2.8042,2.8056,2.7986,2.7977,2.797,2.795,2.8048,2.8048,2.8125,2.8126,2.8126]},{"header":{"parameterUnit":"m.s-1","parameterCategory":1,"la1":30.2991,"la2":30.254,"lo1":-89.0895,"lo2":-89.0444,"dy":0.0017,"dx":0.0017,"nx":28,"ny":28,"refTime":"2024-09-29T21:00:00:Z","depth":0,"parameterNumber":3,"parameterNumberName":"V-component_of_WINDS"},"data":[0,0,0,0,0,0,0,0,0,0,0,0,0,0,0,0,0,0,0,0,0,0,0,0,0,0,0,0,0,0,0,0,0,0,0,0,0,0,0,0,0,0,0,0,0,0,0,0,0,0,0,0,0,0,0,0,0,0,1.909,1.9092,0,1.9212,1.9214,1.9215,1.9218,1.9217,1.9215,1.9214,1.9338,1.9343,1.9347,0,0,0,0,0,0,0,0,0,0,0,0,0,1.8859,1.8863,1.909,1.9092,1.9093,1.9212,1.9214,1.9216,1.9219,1.9217,1.9215,1.9213,1.9337,1.9342,1.9348,0,0,0,0,0,0,0,0,0,0,0,0,0,1.8968,1.8865,1.909,1.9109,1.9112,1.9212,1.9214,1.9216,1.9219,1.9217,1.9215,1.9212,1.9335,1.9342,1.9349,1.9437,0,0,1.937,1.9373,0,0,0,0,0,0,0,0,1.8962,1.8976,1.9105,1.9108,1.9112,1.9198,1.9178,1.929,1.922,1.9178,1.9214,1.9211,1.9293,1.9304,1.9331,1.9443,1.9448,1.9371,1.9375,1.9378,1.938,0,0,0,0,0,0,0,1.8954,1.8971,1.9139,1.9107,1.9111,1.9111,1.9125,1.9199,1.9247,1.9182,1.9182,1.9197,1.9295,1.9325,1.9334,1.945,1.9371,1.9377,1.9381,1.9384,1.964,1.9643,0,0,0,0,0,0,1.8943,1.8965,1.9135,1.9142,1.903,1.9117,1.9132,1.9172,1.9246,1.9255,1.9199,1.9197,1.9314,1.9326,1.9339,1.9448,1.9378,1.9385,1.9389,1.9638,1.9641,1.9644,0,0,0,0,0,0,1.8938,1.8958,1.913,1.9054,1.9076,1.9124,1.9169,1.9176,1.9206,1.9259,1.9267,1.9221,1.9312,1.9329,1.9413,1.9452,1.9388,1.9394,1.9635,1.9639,1.9642,1.9666,0,0,0,0,0,0,1.8931,1.8956,1.8991,1.9055,1.908,1.9202,1.9172,1.918,1.9218,1.9217,1.9282,1.929,1.9312,1.9402,1.942,1.946,1.94,1.9632,1.9637,1.9641,1.9662,1.967,1.9677,0,0,0,0,0,1.8923,1.8992,1.8992,1.9013,1.9124,1.9204,1.9219,1.9243,1.9221,1.9256,1.929,1.9288,1.9445,1.9411,1.9431,1.9474,1.9629,1.9635,1.9641,1.9658,1.9668,1.9677,0,0,0,0,0,0,1.8931,1.9001,1.9002,1.9093,1.9143,1.9205,1.9249,1.9252,1.9309,1.9305,1.9331,1.9346,1.943,1.946,1.9421,1.9564,1.9534,1.9544,1.9541,1.9551,1.9558,1.9549,1.9406,0,0,0,0,0,1.8943,1.9003,1.9061,1.9136,1.9161,1.9201,1.9237,1.9251,1.9303,1.9324,1.9364,1.9415,1.9475,1.9515,1.9573,1.9666,1.968,1.9705,1.9713,1.9719,1.9727,1.9779,1.9791,1.9663,1.9663,1.9663,0,0,1.8969,1.9015,1.9051,1.9139,1.9179,1.924,1.9218,1.9284,1.933,1.9334,1.9416,1.9447,1.9505,1.9594,1.9635,1.9622,1.9766,1.9726,1.9731,1.9736,1.9786,1.9798,1.9809,1.9667,1.9666,1.9666,0,0,1.9049,1.9089,1.9156,1.9197,1.9258,1.9284,1.93,1.9362,1.9383,1.9466,1.947,1.9525,1.9628,1.967,1.9704,1.98,1.98,1.9818,1.9858,1.9908,1.9918,1.9927,1.9961,1.9973,1.9826,1.9826,1.9826,0,1.9073,1.9166,1.919,1.9257,1.9295,1.9302,1.9371,1.9409,1.9486,1.9512,1.9496,1.9627,1.9666,1.9765,1.9788,1.9816,1.9835,1.9811,1.9915,1.9924,1.9933,1.9966,1.9979,1.9828,1.9828,1.9827,1.9827,0,1.9194,1.9258,1.9305,1.938,1.9424,1.9491,1.9525,1.9566,1.9577,1.9604,1.9688,1.9736,1.9805,1.9829,1.984,1.993,1.992,1.9909,1.988,1.9946,1.9978,1.9991,1.983,1.983,1.9829,1.9829,0,0,1.9281,1.9369,1.9386,1.942,1.9488,1.9538,1.9605,1.9673,1.9708,1.9761,1.9818,1.9906,1.9896,1.9935,1.9951,1.9994,2.0067,1.9978,1.998,1.9994,2.017,2.0178,2.0192,2.0068,2.007,2.0072,2.0165,0,1.9368,1.9488,1.9512,1.9616,1.9676,1.9684,1.9742,1.979,1.9818,1.9873,1.9903,1.9965,1.9948,1.9972,2.0015,2.0049,2.0103,2.0043,2.0121,2.0123,2.0107,2.0208,2.0217,2.0302,2.0177,2.0179,2.0181,0,1.9485,1.9542,1.9652,1.9713,1.9739,1.9791,1.9855,1.9907,1.9962,1.9979,2.0023,2.0033,2.0103,2.0071,2.0168,2.0126,2.0159,2.0181,2.0185,2.0193,2.0157,2.022,2.033,2.0343,2.0201,2.0199,2.0198,0,1.9538,1.9642,1.9722,1.975,1.9823,1.986,1.9891,1.9944,1.9983,2.0039,2.0065,2.0127,2.0162,2.021,2.0237,2.0211,2.0332,2.0302,2.0349,2.0348,2.0374,2.0372,2.0491,2.0395,2.0394,2.0394,2.0394,0,1.9633,1.97,1.9747,1.9795,1.9871,1.9898,1.9972,2.0003,2.005,2.0105,2.0115,2.0166,2.0199,2.0254,2.0276,2.0353,2.0368,2.0384,2.0389,2.0384,2.0382,2.0406,2.0401,2.0398,2.0397,2.0396,2.0396,0,1.9705,1.9739,1.9826,1.9888,1.9905,1.9958,2.0011,2.0059,2.0086,2.0156,2.0174,2.0217,2.0284,2.0316,2.0398,2.0412,2.05,2.05,2.0481,2.0483,2.0528,2.0524,2.0668,2.0688,2.0577,2.0578,2.0579,0,1.9764,1.9816,1.9883,1.9921,1.9954,2.0015,2.0055,2.0084,2.0125,2.0192,2.0231,2.0298,2.0353,2.0459,2.0498,2.0561,2.0563,2.0609,2.0573,2.0566,2.0565,2.0561,2.0567,2.0616,2.0617,2.0618,2.0619,0,1.9864,1.9878,1.9936,2.0,2.0048,2.01,2.0151,2.0181,2.0218,2.0264,2.0332,2.0375,2.0459,2.0526,2.0591,2.0623,2.0628,2.063,2.0644,2.0639,2.0627,2.0635,2.05,2.0627,2.0626,2.0625,2.0625,2.0625,1.9931,1.9978,2.0034,2.0098,2.0139,2.0187,2.0235,2.0269,2.0327,2.0398,2.0411,2.0484,2.0537,2.0626,2.066,2.0717,2.0707,2.0727,2.0733,2.0737,2.074,2.0617,2.0729,2.0729,2.0729,2.0729,2.0729,0,2.0032,2.0069,2.0128,2.0199,2.025,2.0249,2.0306,2.0348,2.0412,2.0462,2.0516,2.0595,2.0659,2.0703,2.0769,2.0806,2.081,2.0822,2.082,2.0828,2.0745,2.0727,2.0818,2.0818,2.0818,2.0818,2.0818,2.0818,2.0091,2.0171,2.0192,2.0292,2.0327,2.0399,2.0431,2.0475,2.0515,2.0603,2.0657,2.0685,2.0733,2.0802,2.0861,2.0872,2.0896,2.0909,2.092,2.0843,2.0833,2.0824,2.0807,2.0914,2.0914,2.0998,2.0999,2.0999]}]]